Location: Eagle Ford
(32.7849°N, 96.9008°W)
Time: 11:15:34
(UTC+00:00)

Daily predictions for brighter satellites

Satellite Brightness Start Highest point End
(mag) Time Altitude Azimuth Time Altitude Azimuth Time Altitude Azimuth
OAO 2 Rocket 3.3 12:05:30 21° W 12:09:02 82° NNW 12:14:11 10° ENE
Cosmos 1758 Rocket 3.8 12:07:26 10° S 12:11:50 74° E 12:16:13 10° N
NOSS 3-1 (C) 4.3 12:04:55 13° NW 12:12:10 68° WSW 12:21:29 10° SSE
Meteor 2-20 Rocket 4.3 12:08:54 10° N 12:14:38 90° W 12:20:21 10° S
BREEZE-M DEB (TANK) 4.0 12:11:22 10° SW 12:15:18 73° SE 12:29:56 10° NE
Cosmos 1484 Rocket 2.2 12:12:30 10° N 12:15:53 82° WNW 12:19:13 10° SSW
BREEZE-M DEB (TANK) 3.6 12:14:24 10° SW 12:20:51 72° SE 12:23:35 10° NE
Helios 1A Rocket 2.3 12:19:18 10° S 12:22:35 66° WSW 12:25:55 10° NNW
ISS -1.6 12:20:03 10° SSW 12:23:02 30° SE 12:26:01 10° ENE
IRS-1D 4.4 12:20:13 10° NNW 12:24:17 25° WNW 12:28:25 10° WSW
[s.n.66875] 1.7 12:23:47 10° SW 12:26:17 62° SSE 12:28:48 10° ENE
[s.n.66873] 1.7 12:24:29 10° SW 12:26:59 64° SSE 12:29:30 10° ENE
[s.n.66876] 1.6 12:24:57 10° SW 12:27:27 65° SSE 12:29:58 10° ENE
[s.n.66874] 1.6 12:25:45 10° SW 12:28:15 66° SSE 12:30:47 10° ENE
OAO 3 Copernicus 4.4 12:24:50 15° W 12:28:57 67° N 12:33:56 10° E
[s.n.66872] 1.6 12:26:32 10° SW 12:29:03 68° SSE 12:31:35 10° ENE
[s.n.66871] 1.5 12:27:05 10° SW 12:29:35 69° SSE 12:32:08 10° ENE
[s.n.66870] 1.5 12:27:54 10° SW 12:30:25 71° SSE 12:32:57 10° ENE
Cosmos 2360 Rocket 2.5 12:25:28 10° NNW 12:31:05 71° ENE 12:36:40 10° SSE
Cosmos 1833 4.4 12:25:40 10° SW 12:31:05 50° WNW 12:36:36 10° N
Tiangong -0.7 12:29:07 15° W 12:31:10 27° SW 12:33:57 10° SSE
[s.n.66869] 1.5 12:28:41 10° SW 12:31:12 73° SSE 12:33:45 10° ENE
[s.n.66868] 1.4 12:29:18 10° SW 12:31:49 74° SSE 12:34:22 10° ENE
[s.n.66867] 1.4 12:30:06 10° SW 12:32:37 76° SSE 12:35:11 10° ENE
Cosmos 405 Rocket 2.8 12:30:01 10° SSW 12:33:00 35° W 12:36:02 10° N
COSMO-SKYMED 1 2.8 12:29:21 10° S 12:33:14 42° W 12:37:09 10° NNW
[s.n.66866] 1.4 12:30:50 10° SW 12:33:22 78° SSE 12:35:55 10° ENE
[s.n.66865] 1.4 12:31:23 10° SW 12:33:55 79° SSE 12:36:28 10° ENE
Cosmos 1626 Rocket 3.8 12:29:54 10° SSW 12:34:09 47° W 12:38:25 10° N
[s.n.66860] 1.3 12:32:03 10° SW 12:34:35 80° SSE 12:37:09 10° ENE
[s.n.66864] 1.3 12:32:40 10° SW 12:35:13 82° SSE 12:37:46 10° ENE
OAO 3 Rocket 3.1 12:30:43 10° W 12:35:22 82° NNW 12:40:07 10° ENE
[s.n.66863] 1.3 12:33:16 10° SW 12:35:49 83° SE 12:38:23 10° ENE
[s.n.66861] 1.3 12:34:06 10° WSW 12:36:38 85° SSE 12:39:12 10° ENE
[s.n.66862] 1.3 12:34:44 10° WSW 12:37:17 87° SSE 12:39:51 10° ENE
Cosmos 2333 Rocket 2.3 12:31:37 10° NNW 12:37:20 65° WSW 12:42:57 10° S
Cosmos-2242 3.4 12:33:46 10° NNW 12:37:40 38° W 12:41:32 10° SSW
[s.n.66859] 1.3 12:35:27 10° WSW 12:38:00 88° SE 12:40:34 10° ENE
[s.n.66858] 1.3 12:36:07 10° WSW 12:38:40 90° SW 12:41:14 10° ENE
[s.n.66857] 1.2 12:36:42 10° WSW 12:39:15 89° NNW 12:41:49 10° ENE
[s.n.66856] 1.2 12:37:15 10° WSW 12:39:49 87° NNW 12:42:23 10° ENE
USA 59 Rocket 1.9 12:36:57 11° WNW 12:40:03 21° WSW 12:44:19 10° SSW
[s.n.66855] 1.2 12:37:56 10° WSW 12:40:29 86° NW 12:43:04 10° ENE
[s.n.66854] 1.2 12:38:31 10° WSW 12:41:05 85° NNW 12:43:39 10° ENE
Okean 1 3.6 12:38:17 10° NNW 12:41:33 34° W 12:44:47 10° SSW
[s.n.66853] 1.2 12:39:15 10° WSW 12:41:49 83° NNW 12:44:23 10° ENE
[s.n.66852] 1.2 12:40:01 10° WSW 12:42:34 81° NNW 12:45:09 10° ENE
[s.n.66851] 1.2 12:40:33 10° WSW 12:43:05 80° NW 12:45:40 10° ENE
[s.n.66850] 1.2 12:41:05 10° WSW 12:43:38 79° NNW 12:46:13 10° ENE
[s.n.66849] 1.2 12:41:48 10° WSW 12:44:21 77° NNW 12:46:56 10° ENE
[s.n.66848] 1.2 12:42:20 10° WSW 12:44:54 76° NNW 12:47:28 10° ENE
SL-4 R/B 3.9 12:44:55 10° N 12:46:32 13° NNE 12:48:08 10° ENE
Cosmos 2219 Rocket 2.9 12:42:10 10° N 12:47:42 56° ENE 12:53:10 10° SE
ARIANE 5 R/B 3.1 12:45:54 10° NNE 12:51:06 65° ESE 12:56:15 10° S
COSMOS 2455 4.5 12:48:12 10° WNW 12:51:11 14° WSW 12:54:08 10° SW
IGS 5A 4.0 12:48:15 10° N 12:51:53 34° WNW 12:55:30 10° SW
Cosmos 2322 Rocket 2.3 12:49:47 10° NNW 12:55:23 60° WSW 13:00:54 10° S
Cosmos 2285 Rocket 4.1 12:49:04 10° NNW 12:55:27 77° WSW 13:01:51 10° S
ATLAS 2AS CENTAUR R/B 3.0 12:50:17 10° SW 12:57:06 48° NW 13:03:46 10° NNE
Cosmos 773 Rocket 4.2 23:43:11 10° NNW 23:48:25 81° WSW 23:53:40 10° SSE
IRIDIUM 103 4.3 23:43:25 10° N 23:48:38 67° E 23:53:48 10° S
MOS 1 Rocket 4.1 23:45:06 10° SE 23:49:20 32° ENE 23:53:48 10° N
Cosmos 990 Rocket 4.0 23:45:03 10° SSW 23:50:10 86° WNW 23:55:19 10° NNE
EXPRESS MD2 3.1 23:49:34 10° WSW 23:51:41 40° NW 23:54:29 10° NE
Cosmos 2227 Rocket 3.0 23:46:51 10° N 23:51:44 29° ENE 23:56:36 10° ESE
Cosmos 2084 Rocket 4.2 23:48:14 10° N 23:51:58 30° NE 23:55:41 10° ESE
Aureole 1 Rocket 3.6 23:50:40 10° SSE 23:54:19 38° E 23:58:52 10° NNE
